Location: ????
(55.2778°N, 39.2433°E)
Time: 16:48:46
(UTC+00:00)

WILDFIRE 1 - Visible Passes

Search period start: 08 September 2024 00:00
Search period end: 18 September 2024 00:00
Orbit: 940 x 948 km, 81.0° (Epoch: 07 September)

Date Brightness Start Highest point End Pass type
(mag) Time Alt. Az. Time Alt. Az. Time Alt. Az.
08 Sep ? 00:09:20 10° NNE 00:10:26 10° NE 00:11:32 10° NE visible
08 Sep ? 01:52:03 10° N 01:57:36 34° ENE 02:03:07 10° SE visible
08 Sep ? 17:09:17 10° SSW 17:15:22 69° WNW 17:21:31 10° NNE visible
08 Sep ? 18:57:24 10° W 19:01:36 19° NW 19:05:51 10° N visible
09 Sep ? 00:24:11 10° NNE 00:27:09 14° NE 00:30:06 10° ENE visible
09 Sep ? 17:25:38 10° SW 17:31:33 50° WNW 17:37:32 10° N visible
09 Sep ? 19:14:56 10° WNW 19:18:12 15° NW 19:21:28 10° N visible
10 Sep ? 00:39:44 10° N 00:43:45 18° NE 00:47:45 10° E visible
10 Sep ? 17:42:13 10° SW 17:47:49 37° WNW 17:53:29 10° N visible
10 Sep ? 19:33:05 10° NW 19:34:52 11° NW 19:36:40 10° NNW visible
11 Sep ? 00:55:29 10° N 01:00:17 23° NE 01:05:03 10° ESE visible
11 Sep ? 17:59:01 10° WSW 18:04:10 28° NW 18:09:22 10° N visible
12 Sep ? 01:11:20 10° N 01:16:42 30° ENE 01:22:02 10° ESE visible
12 Sep ? 16:28:27 10° SSW 16:34:34 78° WNW 16:40:45 10° NNE visible
12 Sep ? 18:16:06 10° W 18:20:38 21° NW 18:25:12 10° N visible
12 Sep ? 23:43:44 10° NNE 23:46:06 12° NE 23:48:28 10° ENE visible
13 Sep ? 01:27:15 10° N 01:33:02 40° ENE 01:38:46 10° SE visible
13 Sep ? 16:44:42 10° SSW 16:50:42 57° WNW 16:56:46 10° N visible
13 Sep ? 18:33:29 10° W 18:37:11 16° NW 18:40:54 10° N visible
13 Sep ? 23:59:07 10° N 00:02:45 16° NE 00:06:23 10° E visible
14 Sep ? 01:43:13 10° N 01:49:16 55° ENE 01:55:16 10° SSE visible
14 Sep ? 17:01:11 10° SW 17:06:56 41° WNW 17:12:45 10° N visible
14 Sep ? 18:51:18 10° WNW 18:53:49 12° NW 18:56:20 10° NNW visible
15 Sep ? 00:14:49 10° N 00:19:18 21° NE 00:23:47 10° E visible
15 Sep ? 01:59:15 10° NNW 02:05:25 76° ENE 02:11:33 10° SSE visible
15 Sep ? 17:17:53 10° WSW 17:23:15 31° WNW 17:28:40 10° N visible
16 Sep ? 00:30:37 10° N 00:35:46 27° NE 00:40:53 10° ESE visible
16 Sep ? 02:15:19 10° NNW 02:21:28 79° W 02:27:36 10° S visible
16 Sep ? 17:34:51 10° WSW 17:39:40 24° NW 17:44:31 10° N visible
16 Sep ? 23:03:27 10° NNE 23:05:03 11° NE 23:06:38 10° NE visible
17 Sep ? 00:46:31 10° N 00:52:08 36° ENE 00:57:44 10° SE visible
17 Sep ? 16:03:48 10° SSW 16:09:52 65° WNW 16:16:00 10° NNE visible
17 Sep ? 17:52:05 10° W 17:56:11 18° NW 18:00:16 10° N visible
17 Sep ? 23:18:33 10° N 23:21:44 14° NE 23:24:54 10° ENE visible
